Theta_e
300 300 300 300 301 302 302 301 301 301 302 303 303 304 304 304 305 305 301 305 300 292 295 300 300 299 299 299 292 297 295 298 297 292 294 293 292 295 295 296 294 294 293 293 294 290 288 305 303 298 306 308 308 307
300 300 301 301 302 302 302 302 302 302 303 302 303 304 304 304 305 305 300 307 305 296 295 304 305 306 306 304 301 300 298 298 301 297 298 297 295 297 296 291 300 294 298 297 297 297 307 309 309 311 310 307 307 306
300 300 301 301 302 302 302 303 302 302 303 303 303 304 304 305 305 305 302 305 302 296 296 300 300 307 310 308 311 299 304 304 303 307 300 298 295 298 294 295 297 301 304 300 300 303 305 307 307 308 307 306 307 307
299 300 301 301 302 302 303 302 303 303 303 303 303 304 304 305 305 304 301 307 302 296 290 297 307 305 310 310 310 310 307 309 308 305 299 298 296 301 297 298 299 302 303 300 300 303 304 305 305 306 306 306 305 305
299 300 300 301 302 302 302 302 302 303 303 304 304 304 305 305 305 305 306 307 309 296 290 294 303 306 308 309 308 308 308 307 304 299 298 297 299 299 299 300 298 303 301 299 297 304 304 303 306 306 304 303 303 301
299 299 300 301 302 302 302 302 303 303 304 304 304 304 305 305 306 304 298 304 305 303 296 291 303 300 305 307 305 304 306 305 306 301 298 299 303 299 294 294 301 305 307 308 305 308 307 307 308 306 303 303 301 300
298 299 300 300 302 302 302 302 303 304 304 304 304 304 305 305 305 300 296 302 304 305 296 293 294 298 302 304 305 304 306 303 304 300 298 297 298 299 295 293 300 303 306 307 309 308 305 305 302 305 304 302 302 300
298 299 300 301 302 302 302 303 304 305 305 304 305 305 305 304 303 300 305 306 305 299 300 291 291 293 300 296 297 303 301 301 300 299 298 297 298 298 293 299 301 303 305 307 307 309 307 305 305 303 303 301 299 297
298 299 300 301 301 301 302 304 305 305 305 305 304 304 304 302 298 299 306 305 306 299 292 295 290 287 298 296 299 300 301 295 300 296 296 297 294 291 297 299 300 302 302 304 306 305 305 303 302 302 301 300 298 297
298 299 300 301 301 302 303 304 305 305 304 304 303 297 293 298 304 305 301 296 297 298 299 293 299 291 295 296 297 298 300 294 291 295 298 293 292 300 301 303 303 305 306 306 303 300 301 301 301 301 300 301 300 299
298 298 299 300 301 302 302 304 304 304 304 302 296 294 299 304 299 298 292 291 294 292 296 297 296 294 301 294 295 297 295 295 290 293 293 292 291 297 302 303 304 306 306 307 307 305 305 303 301 300 300 300 300 300
298 298 299 300 300 301 302 304 304 305 301 300 298 301 300 298 296 291 292 294 292 290 296 294 296 298 300 303 296 296 292 294 288 297 292 289 297 301 302 302 305 306 307 306 306 305 304 303 302 301 300 299 299 299
298 299 300 300 301 301 302 303 304 304 304 303 298 295 295 295 288 287 286 289 291 294 296 296 295 299 300 302 296 294 289 290 299 292 291 295 302 303 304 305 305 307 305 306 305 304 303 301 301 299 297 298 298 298
298 299 300 301 301 301 302 302 303 304 300 293 290 286 290 290 290 291 291 293 296 297 296 298 297 297 298 295 294 289 293 294 289 287 289 297 300 302 304 305 305 303 304 303 303 302 300 298 298 298 297 297 297 297
298 299 300 300 302 302 302 302 303 306 299 291 290 286 289 293 293 296 298 298 298 299 297 297 296 296 292 291 292 291 289 287 289 288 288 299 303 304 304 304 303 303 302 301 301 299 298 297 296 296 297 297 297 296
298 299 299 301 301 301 301 304 306 304 298 293 291 289 293 291 292 296 298 297 301 300 301 299 292 289 289 291 287 286 286 287 289 295 298 300 303 304 303 304 304 303 302 300 299 298 297 297 297 296 296 296 296 295
298 297 300 301 300 300 303 303 302 296 294 292 290 295 293 292 292 297 299 299 302 299 294 294 288 290 296 289 287 292 290 292 297 298 299 299 301 303 302 303 303 301 300 300 299 298 298 298 297 296 294 295 296 295
296 299 301 300 300 303 304 303 298 295 291 293 289 294 294 296 297 301 302 302 300 299 299 294 298 289 289 287 288 294 296 297 297 298 297 297 301 304 303 302 302 300 299 299 299 299 298 297 296 294 295 296 294 294
298 299 299 300 300 299 297 298 299 291 294 297 299 300 301 301 304 305 303 303 305 305 301 298 293 291 289 293 294 296 297 295 294 295 297 299 300 301 302 302 302 301 300 300 299 297 297 298 296 295 295 295 294 294
299 300 301 301 301 298 295 296 301 294 292 295 299 298 300 301 304 305 303 302 301 300 297 294 295 299 298 300 299 299 299 297 295 294 295 298 300 300 300 299 298 300 298 299 298 296 298 296 296 296 296 296 294 293
299 301 301 303 302 300 297 294 293 295 295 295 298 298 298 304 302 302 300 304 300 298 296 301 302 303 304 303 303 301 299 297 295 297 297 296 298 298 299 299 300 298 297 297 296 296 295 295 296 296 295 295 295 294
299 300 299 303 298 298 296 298 295 297 295 297 298 299 297 296 298 301 303 299 298 301 302 300 303 303 302 301 302 300 299 299 300 299 296 297 297 297 297 298 297 296 297 297 297 296 296 296 295 295 295 294 293 291
299 299 297 298 292 292 290 299 295 297 292 295 298 294 295 296 300 303 297 300 300 304 304 305 305 305 304 303 302 301 301 301 300 300 300 300 300 300 299 298 298 297 296 297 298 297 296 292 294 295 294 294 293 291
299 295 292 291 292 289 295 294 298 296 295 294 294 292 295 298 300 298 294 299 302 304 305 303 303 302 303 303 301 300 302 303 300 301 301 300 299 299 298 297 298 298 298 297 297 296 295 295 292 294 294 293 292 292
288 290 291 287 294 291 289 291 292 292 289 293 292 293 296 298 293 291 292 299 302 302 304 305 304 302 301 301 302 301 304 302 300 299 301 301 299 297 297 298 298 299 299 297 295 295 294 294 294 293 293 293 293 292
285 291 287 291 293 290 292 289 289 289 291 291 293 298 300 294 291 290 296 300 302 303 302 303 302 302 301 302 301 301 303 304 303 300 301 300 298 297 296 295 295 296 299 298 296 294 294 293 294 294 293 291 286 291
285 288 293 297 296 295 294 297 296 294 290 291 294 294 294 289 290 296 303 305 305 304 306 305 303 302 302 304 303 304 305 305 305 302 302 301 300 300 299 297 296 297 299 298 297 296 294 294 294 293 293 293 292 292
290 291 288 294 294 296 292 292 291 290 292 296 295 291 290 291 293 301 302 305 306 306 306 305 304 305 306 306 305 303 303 304 303 303 301 301 301 302 302 302 302 291 300 300 299 297 296 295 294 294 293 293 292 292
290 293 293 291 291 292 293 293 293 297 299 297 295 293 295 300 302 301 302 305 307 307 304 304 303 305 305 305 304 303 302 301 298 296 295 295 297 299 302 300 300 300 299 294 284 291 295 295 295 295 294 293 293 292
291 296 292 292 291 291 295 298 298 302 303 302 301 300 299 300 303 306 304 303 302 303 306 306 304 303 303 301 300 300 301 301 301 299 297 296 298 300 301 300 300 299 298 296 294 292 285 292 291 294 292 292 291 291
295 294 292 293 292 297 300 301 301 301 300 299 299 297 297 299 303 305 304 303 303 304 306 304 303 303 302 302 300 298 297 300 301 302 302 302 302 301 301 300 299 298 298 296 295 294 292 292 292 291 291 291 289 288
294 292 291 291 294 299 300 298 298 297 298 297 297 298 298 297 295 300 305 303 302 300 295 301 303 302 305 305 304 304 292 302 302 303 303 303 302 302 301 300 299 299 297 296 294 293 292 292 292 292 291 290 289 288
295 295 294 295 295 294 298 297 296 295 296 295 295 296 296 295 292 301 305 306 305 303 303 304 304 305 306 306 307 305 296 304 295 287 288 291 292 296 300 300 300 298 296 296 295 294 292 292 293 290 290 289 288 287
Wind_Speed
21 21 23 24 24 23 24 25 23 23 24 24 24 23 22 22 21 12 9 9 3 4 13 16 12 16 13 7 4 7 4 1 2 3 3 4 2 2 3 9 13 8 5 6 2 3 5 8 6 2 10 11 14 17
21 21 21 22 23 23 23 23 23 23 23 24 24 24 23 22 21 16 10 4 4 5 10 21 20 17 15 12 8 5 7 7 4 3 4 2 7 5 6 5 7 3 5 2 4 6 11 13 16 14 14 14 13 14
22 22 22 21 22 22 23 23 23 24 24 24 24 23 23 22 22 14 10 6 3 4 9 9 4 9 6 6 3 3 4 12 9 8 7 4 5 5 3 3 6 3 8 4 9 9 13 16 13 16 15 14 14 13
22 23 23 22 23 23 23 22 24 25 25 24 23 22 22 20 18 11 8 5 3 3 4 2 6 7 6 10 9 11 10 11 11 9 5 4 4 5 4 4 5 2 5 5 14 13 11 13 15 14 15 15 14 13
21 22 22 22 23 23 22 23 24 25 25 24 22 20 21 20 17 11 9 6 4 2 3 7 10 7 9 9 10 6 5 7 5 5 3 4 4 8 4 2 4 4 6 4 4 12 11 12 13 16 15 14 14 14
21 22 23 23 24 23 23 24 25 25 24 23 22 21 22 12 9 4 2 2 6 3 4 4 3 7 15 8 4 5 3 4 2 2 3 3 5 5 4 1 11 9 12 9 7 10 15 16 11 15 14 15 15 15
22 23 23 25 24 24 24 25 26 26 23 22 20 19 16 9 4 3 4 3 7 4 3 5 2 4 11 7 4 4 3 2 3 3 3 3 4 3 3 2 4 8 12 12 12 19 15 14 13 16 16 16 15 15
22 23 22 23 23 25 26 27 25 22 19 18 18 14 10 10 8 4 4 7 2 3 4 2 0 2 7 4 3 3 2 1 2 3 2 2 1 2 2 3 5 6 10 16 14 13 16 16 18 16 15 15 15 13
22 22 23 23 24 25 26 26 25 17 16 14 13 12 4 2 2 2 15 2 2 2 3 3 2 2 3 3 3 2 2 2 1 1 1 2 3 2 3 6 5 4 6 18 13 11 20 18 15 15 14 14 14 13
22 22 23 23 23 25 25 26 19 16 16 13 5 2 1 2 10 9 0 1 2 2 3 2 2 1 2 2 2 2 1 3 0 2 2 1 4 4 1 6 6 8 9 11 20 17 14 14 13 11 13 13 12 11
21 22 23 23 23 23 23 21 18 20 10 2 2 2 2 8 2 3 3 3 4 2 2 0 2 1 3 2 2 2 2 3 1 3 2 2 3 3 9 6 4 13 4 13 16 15 12 12 11 10 13 14 13 12
20 21 22 22 22 22 22 20 15 10 5 7 5 3 3 4 4 4 3 2 4 2 2 1 1 0 1 2 2 1 2 3 1 4 2 2 4 4 7 12 11 13 11 15 14 16 14 14 13 14 12 12 12 13
20 21 21 21 22 18 18 18 17 10 11 3 4 3 3 2 3 3 2 3 2 2 2 2 3 2 1 3 2 3 3 2 1 2 2 4 4 6 12 12 13 10 10 13 17 16 15 16 16 15 14 12 12 11
19 21 21 21 20 17 17 17 15 9 3 3 4 4 4 3 5 3 4 4 3 5 3 2 1 1 1 2 2 3 3 3 3 3 4 4 5 12 13 12 11 9 10 15 15 15 16 17 15 15 13 11 10 11
20 22 22 16 11 14 18 18 18 4 1 2 2 3 2 4 5 6 4 5 3 1 1 1 2 2 1 1 2 3 3 4 2 4 4 6 7 12 14 14 10 10 9 10 14 15 16 15 14 13 12 11 11 11
20 22 2 11 13 19 20 16 5 2 1 2 2 3 3 3 3 3 3 3 0 1 2 2 1 1 1 2 2 2 3 3 4 3 2 5 6 11 9 10 12 11 12 12 14 15 15 14 13 12 12 11 11 10
20 3 14 13 19 23 15 4 1 3 3 2 1 4 3 5 6 3 4 2 1 1 1 2 1 2 2 2 3 3 2 2 4 3 2 3 3 11 9 11 11 12 13 13 14 13 13 13 12 11 11 10 10 10
11 8 13 17 16 11 2 3 2 3 3 2 3 3 3 5 5 5 2 1 1 2 2 2 3 2 2 2 2 3 3 4 4 3 2 2 2 7 11 12 9 11 12 12 12 13 12 12 11 8 10 10 9 9
13 14 19 16 8 5 4 2 2 3 3 3 5 6 6 3 5 6 2 3 2 2 3 2 3 0 1 2 2 4 2 3 3 4 2 4 9 8 10 11 11 11 11 12 12 9 8 9 9 8 8 9 7 7
21 17 12 9 7 3 4 2 1 3 4 4 6 3 4 3 2 2 4 3 3 2 2 2 3 2 3 1 1 3 5 7 6 6 4 3 7 9 10 9 8 10 9 11 10 9 7 8 7 6 5 7 7 5
10 4 8 3 3 6 3 3 3 2 4 4 3 6 4 2 3 1 1 3 2 2 1 2 3 3 4 1 4 4 9 8 6 7 9 8 7 9 6 8 10 9 9 9 8 8 7 7 7 6 5 5 7 8
2 7 4 3 3 3 3 4 4 4 3 5 4 4 3 2 2 1 3 3 2 3 3 4 3 2 4 4 7 8 11 11 8 7 8 9 9 9 9 9 9 8 7 7 7 7 8 8 6 6 8 7 7 6
6 3 3 4 3 1 6 4 4 2 3 2 2 3 3 2 1 1 0 2 2 2 6 4 5 4 6 11 13 13 12 11 8 10 11 8 8 8 8 8 7 8 7 6 6 6 7 9 4 8 7 7 6 6
1 3 3 2 3 4 4 3 3 3 3 3 3 3 1 1 2 2 2 2 2 2 4 4 4 2 7 8 9 8 7 4 5 6 7 7 7 8 7 6 6 6 6 6 6 8 6 7 7 7 7 7 7 7
2 3 3 4 5 4 4 4 5 3 4 5 4 3 0 1 2 1 2 2 4 5 4 3 2 5 2 6 8 9 10 7 7 6 5 7 7 7 7 7 7 6 6 7 7 7 7 7 6 6 6 6 5 5
3 3 3 3 2 4 2 4 1 2 4 4 3 1 2 1 3 1 3 4 4 3 4 2 2 2 1 6 9 8 10 10 8 7 6 8 8 8 8 8 7 6 6 7 8 9 9 8 8 8 7 6 5 3
3 3 4 4 4 5 3 2 2 3 4 3 3 4 2 1 3 4 3 3 2 5 2 1 3 3 2 3 4 5 7 6 7 8 7 8 8 8 8 7 8 7 7 8 8 9 9 8 8 7 7 5 5 4
3 4 4 4 5 3 4 2 2 2 3 3 5 1 1 2 3 1 1 4 5 4 1 4 2 6 3 6 5 5 5 6 7 6 7 8 8 8 9 8 9 13 6 6 7 7 7 7 7 7 7 6 6 4
4 3 3 8 4 4 4 2 1 2 3 2 3 3 2 2 2 3 1 3 5 3 4 3 1 8 6 5 4 4 3 6 9 12 11 8 6 5 9 8 9 8 8 8 10 5 6 6 8 7 6 5 6 5
3 2 4 7 5 3 2 2 4 5 3 3 4 5 4 4 3 4 4 2 2 3 3 2 4 5 8 7 7 6 5 5 6 7 7 7 7 6 6 6 7 8 8 8 8 9 7 8 7 7 5 5 5 4
3 2 4 6 9 4 4 5 5 3 1 2 3 4 5 6 6 4 6 6 4 3 4 5 6 7 6 7 7 9 8 8 11 12 10 5 8 8 7 7 7 8 8 9 9 8 8 7 7 7 6 6 7 2
3 6 8 10 7 5 5 3 3 4 5 5 3 4 1 3 4 5 5 4 3 3 1 4 5 2 7 3 3 6 7 7 8 6 6 7 9 9 9 8 9 8 9 9 8 8 9 9 7 7 5 5 7 4
6 7 7 7 4 3 2 2 2 2 1 1 1 3 3 3 1 1 4 4 2 1 2 3 4 5 6 5 8 6 2 3 8 7 6 10 11 9 8 7 7 8 9 7 7 8 10 9 7 7 6 6 5 7
Wind_Direction
323 324 325 322 321 321 322 323 322 318 318 320 320 318 318 319 321 321 295 296 277 268 287 279 297 319 322 337 332 318 330 252 233 296 331 82 276 24 145 131 167 161 147 148 188 114 124 358 115 60 103 101 83 87
324 324 323 320 320 323 323 321 320 317 316 315 315 316 315 313 310 310 287 319 281 238 271 300 286 287 293 291 298 297 296 301 341 321 337 34 34 66 104 98 131 117 121 124 123 96 96 75 92 83 94 94 99 93
323 323 320 319 320 323 320 317 320 319 316 314 313 312 311 313 312 300 281 302 278 287 279 257 310 317 314 309 301 296 317 350 337 305 301 336 34 42 53 61 95 100 104 137 91 93 104 101 93 93 94 94 89 93
322 323 323 323 321 320 318 319 319 318 319 315 313 311 312 313 319 316 286 284 230 270 280 314 330 322 320 316 300 259 272 309 305 297 342 8 10 359 60 90 100 96 99 95 103 120 86 116 119 113 106 99 102 98
322 323 324 321 319 319 318 318 316 315 317 318 319 320 315 313 316 295 275 289 201 204 286 290 306 12 335 323 314 294 282 306 327 322 341 41 13 351 70 273 140 121 117 137 148 144 126 109 96 105 110 110 105 105
322 322 323 320 320 319 319 318 315 313 314 317 318 321 327 317 312 322 284 68 42 356 278 302 50 2 352 7 349 351 335 314 332 357 1 52 11 342 338 68 93 112 86 70 110 119 127 122 116 121 122 112 106 105
322 320 320 320 321 322 322 317 313 309 307 309 312 312 314 312 297 273 321 327 354 313 254 282 46 354 342 327 346 338 348 328 47 325 40 46 26 311 278 124 19 57 108 90 123 130 125 130 122 109 99 106 108 106
319 318 318 322 322 323 323 321 318 315 310 308 310 311 298 299 280 290 357 282 196 274 273 282 293 30 2 325 320 327 345 132 72 339 57 40 233 224 276 103 74 30 100 118 126 138 127 117 113 115 120 123 119 119
317 318 320 325 324 326 325 324 318 317 317 314 314 304 280 278 335 323 308 269 222 267 298 275 22 35 319 304 286 282 299 16 67 98 158 266 240 231 82 217 119 150 148 121 121 121 127 125 128 132 138 135 126 123
316 317 322 324 326 327 330 328 333 326 317 308 307 338 0 352 316 314 201 256 218 219 240 288 50 68 176 249 270 242 204 339 230 107 114 124 265 120 51 79 190 90 106 125 133 128 127 141 135 150 140 131 126 128
315 316 321 324 327 330 331 335 333 331 282 337 327 345 281 290 286 228 221 233 208 209 214 296 104 5 183 281 317 264 231 267 248 175 225 218 213 174 152 136 118 102 90 116 114 130 148 133 143 146 122 115 119 122
314 316 319 321 325 326 330 332 325 328 0 324 300 286 262 240 232 258 221 169 231 182 185 319 130 185 279 270 267 316 256 251 271 181 210 217 120 167 174 132 119 128 136 128 160 146 132 133 123 108 114 115 102 105
313 315 316 317 321 319 331 332 337 313 301 277 228 263 229 243 261 254 226 149 105 138 143 185 204 271 228 226 251 267 290 291 234 233 224 56 164 162 120 133 125 114 150 136 120 123 124 116 116 116 112 117 125 120
314 314 312 313 312 301 323 324 324 327 291 322 322 298 287 329 12 14 357 345 10 103 140 188 106 255 324 19 5 267 277 292 267 207 64 132 177 103 115 122 122 114 110 126 125 123 120 113 115 115 113 116 118 121
315 311 310 303 293 317 323 317 307 275 263 290 295 295 319 4 295 306 324 328 78 108 97 132 2 48 53 347 314 315 261 267 355 48 300 7 88 100 123 121 115 131 147 120 122 117 115 118 114 113 110 112 114 109
317 307 296 326 336 328 315 308 280 221 216 260 263 278 274 272 328 313 269 282 315 304 343 260 73 249 188 262 244 240 275 18 27 79 59 345 89 111 95 105 120 118 124 122 116 120 116 121 116 116 118 119 119 120
306 221 326 329 333 312 297 269 268 242 263 255 243 260 284 275 257 254 273 294 163 293 341 334 288 271 321 229 211 220 341 80 357 37 28 321 142 115 96 127 121 123 116 112 114 118 117 116 125 126 120 117 116 104
285 308 321 339 331 301 259 228 259 252 254 248 264 276 222 237 297 303 255 155 295 279 326 321 312 334 225 240 305 3 7 67 43 67 103 313 88 126 136 132 133 125 127 133 130 118 128 132 127 118 123 119 122 119
310 307 308 307 310 301 281 246 269 288 265 214 221 243 239 255 240 258 179 214 324 305 304 276 243 261 323 241 278 291 189 128 132 120 46 29 87 110 143 143 144 137 133 124 124 136 142 151 126 147 146 167 148 157
292 285 285 282 277 252 268 267 258 270 291 312 295 227 248 233 253 199 232 211 233 277 248 246 36 4 337 50 235 262 107 124 127 119 104 156 165 145 122 119 120 121 126 140 144 154 151 134 158 157 158 107 109 135
292 346 302 264 213 229 279 289 258 251 288 275 288 300 273 263 266 209 304 287 267 266 354 47 69 66 113 136 73 72 125 137 145 133 139 136 129 123 160 128 143 156 160 154 157 137 162 150 123 116 137 129 100 83
300 317 305 246 260 260 246 227 269 298 271 275 287 258 268 271 259 215 187 257 262 19 8 61 85 116 120 145 115 124 141 156 162 139 112 136 150 167 159 161 173 159 161 153 145 173 131 112 123 158 99 102 102 105
291 329 258 260 304 256 260 225 262 231 257 269 268 252 247 301 300 293 171 297 30 38 65 57 41 61 117 111 121 146 170 185 170 167 174 176 156 153 166 165 160 154 153 129 138 118 112 116 137 117 122 130 114 123
127 265 265 276 220 268 299 249 250 270 275 266 243 279 227 250 303 270 292 110 351 34 68 105 115 110 139 143 134 165 162 181 155 144 155 156 163 162 148 137 122 121 130 144 127 116 140 142 116 139 155 139 160 172
278 227 203 254 244 232 253 219 206 222 253 277 282 260 64 80 271 274 271 68 32 37 39 152 193 148 214 157 141 156 188 178 171 170 171 176 139 127 136 147 144 137 138 138 133 145 156 136 171 164 163 165 164 133
264 219 193 261 219 261 300 309 219 262 295 286 254 221 199 189 247 240 63 31 41 19 -0 101 182 160 98 247 155 159 178 188 176 172 180 152 153 164 158 152 142 136 138 141 153 163 147 179 180 154 129 113 71 141
266 262 226 254 276 285 269 256 292 290 260 297 354 337 346 280 13 48 38 28 40 67 71 136 142 172 248 276 208 187 154 178 204 177 150 145 159 158 161 167 167 157 164 156 162 161 172 171 151 167 143 146 147 224
278 308 286 302 285 289 280 258 300 321 301 330 310 351 58 318 10 310 1 94 129 131 119 309 116 150 196 266 246 156 157 156 122 128 138 157 158 164 182 194 165 143 163 164 156 144 152 161 163 171 158 160 151 123
256 251 276 276 267 266 261 243 239 208 220 279 344 355 21 208 200 333 273 187 145 187 163 215 272 146 210 243 122 181 163 144 162 173 163 147 147 125 106 114 138 140 109 82 48 89 156 165 164 156 147 136 117 130
264 193 245 258 237 245 224 228 233 256 244 238 222 248 301 329 284 303 308 316 198 173 189 131 277 173 177 188 192 150 177 170 164 165 171 172 179 155 127 157 155 137 134 140 122 118 114 117 108 107 133 137 130 116
275 271 255 258 281 300 284 267 265 252 247 299 303 282 302 310 306 35 35 14 7 51 130 138 209 259 183 213 193 166 182 179 180 191 203 203 136 131 156 164 152 141 155 160 158 164 156 156 164 162 170 153 116 184
265 248 257 290 301 301 301 302 332 300 291 293 304 275 299 341 338 348 39 1 359 1 64 167 146 345 330 329 264 249 210 196 181 194 172 158 141 155 161 160 157 154 159 153 159 163 164 173 159 151 175 150 132 183
234 253 251 270 276 282 341 292 254 210 258 238 345 1 16 18 324 8 66 41 24 46 350 22 77 156 170 269 295 311 355 54 86 76 93 118 134 158 157 154 132 146 156 161 169 159 182 156 114 115 79 84 119 91